Showing default

EUCROPIS, 43807

Orbit data source: Space-Track

EUCROPIS, 43807 is a payload satellite owned by DLR (DE) in SSO that was launched on Mon, 03 Dec 2018 UTC via an FALCON 9 launch vehicle from the Air Force Western Test Range (AFWTR). Payloads include a variety of satellites, spacecraft, and rockets equipped with specific instruments for various scientific and technological missions. These include communications satellites like Starlink; space stations such as the ISS; scientific satellites like the Hubble; Earth observation satellites from companies like Planet Labs, Umbra, and HawkEye 360; GPS; miniature CubeSats for education and research; and military/defense satellites.

Loading next visibility...
EUCROPIS details
Identifier
43807, 2018-099BB
Orbit
SSO
Last TLE update15 hours ago
Origin
Flag of DEDLR (DE / GER)
ManufacturerDLR-ISS
MissionOperational Civil Science
Bus & MotorCSBUS, Unknown motor
Mass250 kg wet, 250 kg dry
Launch date (UTC)
2018-12-03 (6 years ago)
Launch vehicle
FALCON 9
Launch site
Air Force Western Test Range (AFWTR)
Object type
Payload
Rocket body
Debris
Shape & HBRCyl + 4 Pan, 2.9 m
Radar Cross Section2.317 m², Large (>1 m²)

Expand to show TLE details & history

TLE from 15 hours ago
0 EUCROPIS
1 43807U 18099BB  24361.15838241  .00012242  00000-0  75630-3 0  9992
2 43807  97.5012  55.4193 0007143  18.6104 341.5386 15.09993761330961
Epoch: 2024-12-26T03:48Z
Definitive object data (Epoch: 2024-12-26T03:48:04.24Z)
Latitude0.00006°
Longitude-96.74017°
Altitude534.608 km
Speed7.598 km/s
True Right ascension03h 41m 40s
True Declination0° 00' 00"
Sunlit
Object was in full shadow at TLE epoch
Visualization TLE readout
Latitude77.86471°
Longitude-133.65961°
Altitude547.151 km
Speed7.597 km/s
Apparent Right ascension04h 54m 05s
Apparent Declination25° 36' 25"
Sunlit
Object is in full shadow
Visualization observer readout
Local Sidereal Time17:50:38
Azimuth13.86° NNE
Elevation-23.165°
Doppler factor1
Orbital elements
Apogee altitude538.139 km
Perigee altitude528.266 km
Semi-major axis6,911.339 km
Eccentricity0.0007143
Inclination97.5012°
RAAN55.4193°
Arg. of periapsis18.6104°
True anomaly341.51266°
Mean anomaly341.5386°
Eccentric anomaly341.52563°
Mean motion3.77746 °/min
BSTAR0.0007563
Orbital period95.3 mins
Loading maneuver chart data...
Loading historical data...
Loading historical data...
Loading historical data...
Loading historical data...
Loading historical data...
Loading historical data...
Loading historical data...

EUCROPIS Visibility forecast

Observer location: undefined°, undefined

Span
Click to sort rows by Start time (UTC) header in descending order
Start Az.
Max El. time (UTC)
Max El. Az.
Max El.
End time (UTC)
End Az.
6 mins2024-12-27 03:47:08.000Z160.229° S2024-12-27 03:50:08.000Z78.69° E44.028°2024-12-27 03:53:08.000Z352.663° N
6 mins2024-12-27 16:57:08.000Z0.096° NNE2024-12-27 16:59:08.000Z322.454° NNW39.348°2024-12-27 17:03:08.000Z205.285° SW
|